Location: Grundy Observatory
(40.0525°N, 76.3328°W)
Time: 19:47:07
(UTC-05:00)

Daily predictions for brighter satellites

Satellite Brightness Start Highest point End
(mag) Time Altitude Azimuth Time Altitude Azimuth Time Altitude Azimuth
Cosmos 1833 4.3 18:12:04 10° SSW 18:17:46 90° WSW 18:23:27 10° NNE
SL-16 R/B 3.8 18:16:37 10° NW 18:21:53 41° WSW 18:27:09 10° S
Resurs 01 Rocket 3.0 18:19:46 10° ESE 18:22:56 20° ENE 18:26:06 10° NNE
Meteor 1-11 Rocket 4.0 18:17:20 10° S 18:22:57 54° E 18:28:44 10° NNE
NOAA 12 4.2 18:18:07 10° SSE 18:23:18 56° ENE 18:28:32 10° N
Cosmos 1140 Rocket 3.4 18:20:52 10° SSW 18:26:00 81° ESE 18:31:11 10° NNE
Cosmos 2333 Rocket 3.6 18:21:56 10° N 18:26:05 20° NE 18:30:12 10° E
Cosmos 614 Rocket 4.0 18:21:59 10° S 18:26:58 62° ESE 18:31:59 10° NNE
FENGYUN 3A 4.3 18:25:40 10° SE 18:30:31 35° ENE 18:35:23 10° N
ATLAS CENTAUR R/B 3.3 18:31:03 10° S 18:34:16 16° SE 18:36:03 11° E
GPS 2-04 Rocket1 3.7 18:31:56 10° WSW 18:35:53 40° S 18:39:42 11° ESE
Cosmos 2322 Rocket 4.4 18:31:11 10° NW 18:35:58 30° WSW 18:40:45 10° SSW
Meteor 1-28 Rocket 3.8 18:32:13 10° N 18:36:01 64° WNW 18:39:47 10° SSW
Cosmos 1570 Rocket 4.1 18:31:19 10° N 18:36:27 54° ENE 18:41:34 10° SE
Cosmos 2181 Rocket 4.0 18:30:24 10° N 18:36:41 75° E 18:43:03 10° SSE
Cosmos 1633 2.8 18:34:45 10° S 18:38:25 77° W 18:42:07 10° N
USA 229 DEB 4.1 18:32:48 10° NNW 18:39:40 48° NE 18:46:37 10° ESE
USA 229 4.1 18:32:54 10° NNW 18:39:45 47° NE 18:46:42 10° ESE
Genesis I 3.1 18:36:24 10° NNW 18:40:20 75° ENE 18:44:15 10° SE
Cosmos 1238 Rocket 2.0 18:37:51 10° N 18:40:48 88° E 18:43:53 10° S
Okean 1 Rocket 3.1 18:36:52 10° S 18:41:19 67° E 18:45:46 10° NNE
Cosmos 1709 Rocket 4.2 18:37:16 10° S 18:43:28 77° W 18:49:39 10° N
Cosmos 2074 Rocket 4.2 18:39:04 10° SSE 18:44:58 47° E 18:50:57 10° NNE
METEOR-M 4.1 18:39:52 10° SSE 18:45:12 87° ENE 18:50:35 10° NNW
Cosmos 1025 Rocket 3.4 18:44:25 10° N 18:48:35 41° ENE 18:52:44 10° SSE
OTV 4 2.2 18:47:47 10° SSW 18:50:05 20° SSE 18:51:22 16° ESE
Spot 2 Rocket 3.9 18:45:40 10° SE 18:50:19 39° ENE 18:55:02 10° N
Cosmos 2184 Rocket 4.2 18:45:18 10° SSE 18:51:20 50° E 18:57:20 10° NNE
FengYun 1-2 T 4.3 18:50:04 10° SSE 18:55:25 57° ENE 19:00:48 10° N
Cosmos 2322 4.3 18:52:13 10° NNW 18:57:51 61° WSW 19:03:25 10° S
Hubble Space Telescope 3.0 18:59:18 10° SSW 19:01:34 14° S 19:03:33 11° SE
BREEZE-M DEB (TANK) 2.2 18:59:54 10° SW 19:04:12 74° SE 19:05:20 29° ENE
Cosmos 1850 Rocket 4.3 19:00:40 10° SSW 19:05:57 71° WNW 19:11:19 10° NNE
Envisat 4.3 19:06:50 19° ENE 19:07:04 19° ENE 19:10:34 10° NNE
Cosmos 2208 Rocket 4.1 19:02:02 10° NNW 19:07:31 87° WSW 19:12:54 10° SSE
CZ-3C R/B 3.8 19:07:08 10° SW 19:08:15 10° SSW 19:09:12 10° SSW
SJ-6B 3.2 19:04:46 10° S 19:08:43 65° WSW 19:12:36 10° NNW
Cosmos 1544 Rocket 4.2 19:05:02 10° SSE 19:08:52 32° E 19:12:43 10° NNE
NOSS 0 Rocket 4.2 19:05:14 10° NNW 19:11:06 44° ENE 19:15:08 19° ESE
Cosmos 405 Rocket 3.3 19:07:37 10° N 19:11:25 37° ENE 19:13:12 24° SE
ALOS 2.2 19:07:39 10° SSE 19:12:19 87° E 19:17:01 10° NNW
Cosmos 2237 Rocket 3.0 19:07:24 10° N 19:12:28 32° ENE 19:14:36 25° E
HJ-1C 3.3 19:10:12 10° SSE 19:13:34 87° WSW 19:16:57 10° NNW
Cosmos 2297 Rocket 3.1 19:09:29 10° SSE 19:13:59 25° ESE 19:14:23 25° E
Cosmos 2333 4.2 19:09:07 10° NNW 19:14:53 84° ENE 19:20:39 10° SSE
H-2A R/B 2.6 19:11:47 10° SSE 19:15:26 59° ENE 19:19:09 10° N
CZ-2D R/B 3.5 19:14:14 24° SE 19:16:10 44° ENE 19:19:48 10° N
COSMOS 2428 2.8 19:11:00 10° NNW 19:16:43 82° WSW 19:22:24 10° SSE
Okean 1-7 Rocket 4.0 19:14:52 10° NNW 19:19:21 66° W 19:23:45 10° S
Cosmos 2154 Rocket 4.2 19:14:51 10° SSE 19:20:49 45° E 19:26:48 10° NNE
Meteor 2-4 Rocket 4.0 19:16:37 10° NNW 19:22:04 65° W 19:27:22 10° S
Gbstr 26 Del rocket 4.3 19:20:06 10° W 19:23:24 27° NNW 19:25:40 16° NNE
Cosmos 2285 Rocket 3.9 19:17:07 10° NNW 19:23:35 79° ENE 19:29:59 10° SSE
Cosmos 2360 Rocket 4.1 19:19:53 10° NW 19:24:47 31° WSW 19:29:41 10° SSW
Cosmos 2219 Rocket 2.1 19:19:20 10° NNW 19:24:55 65° ENE 19:28:57 19° SE
Meteor 1-23 Rocket 4.5 19:22:04 10° NNW 19:27:51 73° W 19:33:31 10° S
Okean 2 3.3 19:24:48 10° N 19:29:00 81° E 19:33:10 10° S
Cosmos 2219 4.0 19:26:46 10° SW 19:32:22 53° WNW 19:38:00 10° NNE
OAO 3 Rocket 4.4 19:28:49 10° SW 19:32:52 25° SSE 19:33:19 25° SSE
Cosmos 2227 Rocket 2.3 19:28:49 10° S 19:34:13 50° ESE 19:38:29 17° NE
Helios 1A 2.9 19:33:28 46° ESE 19:34:21 57° ENE 19:38:26 10° N
Atlas Centaur 2 4.0 19:29:38 10° SSW 19:34:29 19° SSE 19:35:47 18° SSE
Cosmos 1486 Rocket 4.3 19:29:40 10° S 19:34:40 43° ESE 19:36:14 34° ENE
Helios 1B rocket 2.4 19:31:30 10° NNE 19:35:36 57° E 19:39:40 10° S
Abrixas rocket 3.4 19:33:26 10° W 19:36:34 36° NNW 19:37:11 33° N
SAR-Lupe-1 4.2 19:44:48 60° N 19:44:48 60° N 19:47:49 10° N
SAR-Lupe-4 3.5 19:44:54 78° SSW 19:45:04 83° WSW 19:48:41 10° NNW
Cosmos 1455 Rocket 2.9 19:41:55 10° S 19:46:16 70° E 19:50:36 10° NNE
Cosmos 841 Rocket 4.2 19:42:31 10° N 19:46:23 34° NE 19:46:23 34° NE
SL-16 R/B 3.4 19:43:26 10° N 19:47:22 26° NE 19:47:22 26° NE
Cosmos 962 Rocket 4.4 19:45:03 10° S 19:51:05 59° E 19:57:06 10° NNE
Cosmos 1763 Rocket 3.6 19:52:56 10° N 19:57:29 54° NE 19:57:29 54° NE
Resurs 01 Rocket 3.0 19:55:03 10° SSW 19:59:08 37° W 20:03:15 10° NNW
Cosmos 2333 Rocket 2.5 20:05:08 10° NNW 20:10:51 66° WSW 20:12:59 38° S
GEOS 3 Rocket 4.1 20:08:20 22° NNE 20:11:39 58° NW 20:16:49 10° SW
Cosmos 1980 3.6 20:06:13 10° NNW 20:11:54 81° WSW 20:12:50 63° S
GPS 2-04 Rocket1 4.2 20:11:22 10° WSW 20:14:12 34° SW 20:14:12 34° SW
Cosmos 1295 Rocket 4.4 20:33:36 82° W 20:33:40 82° W 20:40:00 10° N
Cosmos 2082 4.2 20:30:55 10° SW 20:36:33 57° WNW 20:37:59 45° NNW
NOSS 3-1 (A) 3.9 20:35:55 10° NW 20:43:39 89° WSW 20:44:07 82° SSE
Envisat 4.1 20:47:02 40° NW 20:47:02 40° NW 20:50:38 10° NNW
ATLAS 2AS CENTAUR R/B 3.9 20:41:58 10° NNW 20:48:06 35° NNE 20:48:06 35° NNE
Cosmos 2237 Rocket 3.4 20:51:21 10° NW 20:56:29 37° WSW 20:56:29 37° WSW
Cosmos 2297 Rocket 3.4 20:52:20 10° SW 20:56:25 38° W 20:56:25 38° W
NOSS 3-1 (C) 4.4 20:53:51 10° NW 21:01:24 58° WSW 21:02:16 55° SW
Cosmos 2227 Rocket 4.2 21:14:00 10° WSW 21:18:33 24° NW 21:20:36 20° NNW
SL-16 R/B 4.3 21:27:09 10° NW 21:29:17 22° NW 21:29:17 22° NW
